Location: Ciciliano
(41.9500°N, 12.9333°E)
Time: 06:57:57
(UTC+00:00)

Daily predictions for brighter satellites

Satellite Brightness Start Highest point End
(mag) Time Altitude Azimuth Time Altitude Azimuth Time Altitude Azimuth
CZ-2C R/B 4.1 16:29:09 10° ESE 16:33:29 26° ENE 16:38:00 10° N
Cosmos 1634 Rocket 4.0 16:27:13 10° N 16:33:29 75° E 16:39:45 10° SSE
H-2A R/B 2.5 16:31:20 10° SSE 16:35:18 86° WSW 16:39:28 10° NNW
Okean-O 4.2 16:33:10 10° E 16:35:32 14° ENE 16:37:56 10° NNE
H-2A R/B 3.4 16:33:42 10° E 16:36:37 16° ENE 16:39:34 10° NNE
Okean O Rocket 1.6 16:33:44 10° SSE 16:38:09 67° ENE 16:42:34 10° N
YAOGAN 6 4.3 16:36:47 10° SSW 16:40:06 37° W 16:43:28 10° NNW
SMAP 3.2 16:35:29 10° SSE 16:40:08 86° WSW 16:44:50 10° NNW
OE (NEXTSAT) 4.3 16:37:31 10° WSW 16:40:57 90° SSE 16:44:24 10° ENE
CZ-4B R/B 2.3 16:37:59 10° NE 16:41:00 30° E 16:43:56 10° SSE
Cosmos 1626 2.8 16:37:25 10° SSW 16:41:04 59° W 16:44:44 10° N
CZ-4B R/B 3.3 16:36:36 10° SSE 16:42:07 86° ENE 16:47:46 10° NNW
SL-24 R/B 4.1 16:38:28 10° SSE 16:42:45 85° ENE 16:47:20 10° NNW
Cosmos 773 Rocket 4.1 16:38:10 10° N 16:43:14 54° ENE 16:48:14 10° SE
Aureole 2 Rocket 3.7 16:43:37 10° SSE 16:45:45 18° E 16:47:56 10° NE
AQUARIUS 4.3 16:42:36 10° SSE 16:47:05 83° WSW 16:51:36 10° NNW
Cosmos 1689 Rocket 4.1 16:48:09 10° E 16:48:47 11° E 16:49:33 10° ESE
Cosmos 1818 4.4 16:44:24 10° S 16:49:08 32° ESE 16:53:54 10° NE
Cosmos 1603 4.0 16:46:40 10° NNW 16:52:23 76° WSW 16:58:06 10° SSE
Meteor 2-10 Rocket 4.0 16:47:52 10° N 16:53:02 39° ENE 16:57:57 10° SE
CZ-2D R/B 3.8 16:51:28 10° SE 16:54:58 34° ENE 16:58:29 10° N
YAOGAN 1 3.7 16:54:24 10° ESE 16:57:42 22° ENE 17:01:00 10° NNE
Cosmos 1892 Rocket 3.6 16:53:48 10° S 16:58:01 53° E 17:02:15 10° NNE
Cosmos 1606 Rocket 3.5 16:53:50 10° N 16:58:14 78° E 17:02:39 10° SSE
TELKOM 3 2.8 16:57:00 10° SW 16:59:17 77° SE 17:01:03 17° ENE
H-2A R/B 2.7 16:55:08 10° N 16:59:32 59° WNW 17:03:48 10° SSW
FengYun 1-2 T 4.4 16:54:08 10° SSE 16:59:41 82° WSW 17:05:19 10° NNW
ATLAS 5 CENTAUR R/B 2.8 16:56:59 10° WSW 17:00:38 33° NW 17:04:43 10° NNE
Helios 1A Rocket 4.3 17:00:38 10° ESE 17:03:35 19° ENE 17:06:33 10° NNE
MOS 1 Rocket 3.3 17:04:52 10° NNE 17:09:02 46° E 17:13:08 10° S
Cosmos 2228 3.4 17:05:57 10° NNW 17:10:11 68° W 17:14:27 10° S
ATLAS 3B R/B 3.8 17:03:38 10° NW 17:10:21 50° WSW 17:17:19 10° S
BREEZE-M DEB (TANK) 3.8 17:08:51 10° W 17:11:27 31° SSW 17:14:53 10° SE
CZ-4C R/B 4.2 17:11:03 10° WNW 17:14:51 19° NNW 17:19:09 10° NNE
SKYMED 2 3.5 17:10:37 10° NNE 17:14:59 75° ESE 17:19:18 10° S
SJ 16-02 1.8 17:11:18 10° S 17:15:24 39° ESE 17:18:57 13° NE
Nadezhda 4 Rocket 4.1 17:10:31 10° SSE 17:16:34 53° E 17:22:34 10° NNE
Cosmos 1538 Rocket 3.9 17:11:48 10° NNW 17:16:56 61° ENE 17:22:02 10° SSE
Aureole 3 3.8 17:14:06 10° NNE 17:17:00 25° ENE 17:19:35 10° SE
CZ-3B R/B 3.2 17:15:55 10° NNW 17:18:19 23° NE 17:20:09 19° ENE
Cosmos 1777 Rocket 4.2 17:13:27 10° SSW 17:18:42 77° WNW 17:24:01 10° NNE
Cosmos 2263 Rocket 3.7 17:15:52 10° WSW 17:21:00 34° WNW 17:26:08 10° N
Cosmos 1455 2.5 17:24:05 10° N 17:27:42 40° ENE 17:31:19 10° SSE
Cosmos 2058 Rocket 3.0 17:25:11 10° N 17:29:42 82° E 17:34:13 10° S
Cosmos 1703 4.0 17:27:50 10° SSE 17:31:15 30° E 17:31:37 29° E
X-37B 0.7 17:29:10 10° WSW 17:32:19 61° SSE 17:33:14 39° E
Meteor 2-13 Rocket 4.4 17:28:58 10° S 17:35:01 71° E 17:41:08 10° NNE
ARGOS 3.6 17:31:00 10° SE 17:35:55 38° ENE 17:40:51 10° N
Cosmos 44 4.0 17:35:11 10° S 17:39:21 32° ESE 17:40:18 30° E
Okean 1-7 Rocket 3.7 17:35:01 10° S 17:39:32 82° W 17:44:07 10° N
Lacrosse 5 2.1 17:38:12 10° NW 17:43:07 48° NE 17:45:00 32° E
Cosmos 1939 Rocket 4.4 17:39:19 10° SSW 17:43:11 39° W 17:47:02 10° NNW
ISS -3.7 17:40:52 10° WSW 17:44:13 75° NNW 17:45:00 49° NE
ERS-2 2.2 17:42:02 11° N 17:45:33 74° WNW 17:49:09 10° SSW
CSL-04 Debris 4.3 17:40:49 10° SE 17:45:58 48° ENE 17:51:07 10° N
CZ-2C R/B 3.3 17:45:49 29° ENE 17:47:30 35° E 17:52:35 10° SSE
PSLV R/B 3.9 17:43:44 10° NNE 17:47:58 89° E 17:52:11 10° SSW
COSMOS 2455 3.4 17:42:26 10° SW 17:48:20 57° WNW 17:54:02 11° NNE
EXPRESS MD2 3.8 17:41:11 10° WNW 17:48:42 81° NNE 17:50:21 37° ESE
Cosmos 1626 Rocket 3.4 17:46:25 10° S 17:50:45 69° E 17:54:01 18° NNE
Cosmos 1844 3.6 17:47:25 10° SSW 17:53:02 81° ESE 17:57:10 20° NNE
Cosmos 2026 Rocket 4.1 17:47:54 10° SSE 17:53:40 47° E 17:59:32 10° NNE
IRS-1C Rocket 4.4 17:48:37 10° S 17:53:50 67° WSW 17:59:05 10° NNW
Cosmos 990 Rocket 4.1 17:49:44 10° S 17:54:45 50° ESE 17:56:17 37° ENE
CZ-4 R/B 1.5 17:51:17 10° S 17:55:24 77° WSW 17:59:29 10° NNW
Cosmos 1833 Rocket 4.4 17:52:41 10° N 17:54:41 16° NNE 17:54:41 16° NNE
NOSS 2-1 (C) 4.1 17:58:21 10° SSW 18:00:30 30° S 18:00:30 30° S
COSMO-SKYMED 1 4.3 17:59:04 10° N 18:02:57 33° WNW 18:06:49 10° SW
DMSP B5D1-3 4.4 18:01:31 12° NNE 18:06:16 85° ESE 18:11:22 10° SSW
USA 267 3.5 18:04:12 37° E 18:06:21 50° SE 18:12:39 10° SSW
NOSS 2-1 (D) 4.2 18:04:09 10° SSW 18:06:13 31° S 18:06:13 31° S
Hubble Space Telescope 3.2 18:06:29 10° SSW 18:08:10 12° S 18:08:45 12° SSE
Okean-O 3.1 18:07:10 10° S 18:11:31 59° WSW 18:15:55 10° NNW
CZ-4B R/B 4.4 18:10:58 10° NNW 18:12:55 15° WNW 18:14:50 10° WSW
CZ-2C R/B 4.4 18:08:07 10° SSW 18:13:04 42° W 18:18:18 10° NNW
Cosmos 1844 Rocket 3.3 18:09:36 10° SW 18:15:09 55° WNW 18:19:24 17° NNE
H-2A R/B 2.2 18:10:31 10° S 18:15:26 67° WSW 18:20:30 10° NNW
Cosmos 923 Rocket 4.0 18:13:17 10° NNW 18:18:40 87° WSW 18:23:15 14° SSE
Cosmos 2195 Rocket 4.4 18:12:55 10° S 18:19:14 89° E 18:25:37 10° N
Cosmos 1689 Rocket 4.2 18:20:01 26° WNW 18:20:01 26° WNW 18:22:19 10° SW
Cosmos 1898 Rocket 3.3 18:17:59 10° SSW 18:23:15 78° ESE 18:23:42 71° ENE
Cosmos 158 Rocket 4.2 18:18:43 10° NNW 18:24:03 71° WSW 18:29:25 10° S
Cosmos 2278 Rocket 4.0 18:19:05 10° SSE 18:20:26 17° SSE 18:20:26 17° SSE
Meteor 2-8 Rocket 4.3 18:18:17 10° N 18:24:23 82° E 18:30:30 10° S
Meteor 2-15 4.4 18:19:01 10° N 18:24:42 57° ENE 18:24:42 57° ENE
Cosmos 1680 Rocket 3.3 18:20:48 10° NNW 18:26:04 83° ENE 18:26:36 72° SE
Cosmos 1627 Rocket 4.4 18:22:58 10° S 18:29:07 86° W 18:35:24 10° N
Cosmos 2098 Rocket 4.2 18:23:23 10° S 18:30:18 77° E 18:37:46 10° N
Cosmos 1602 Rocket 4.0 18:26:36 10° SSW 18:30:51 58° W 18:31:35 50° NW
YAOGAN 1 4.2 18:29:38 10° SSW 18:33:34 34° W 18:37:33 10° NNW
Cosmos 1428 Rocket 4.4 18:27:50 10° S 18:34:06 85° W 18:40:28 10° N
CSL-04 Rocket 3.9 18:31:53 10° S 18:37:14 66° WSW 18:42:41 10° NNW
Helios 1A Rocket 4.4 18:34:38 10° SSW 18:38:28 36° W 18:42:19 10° NNW
USA 234 3.9 18:40:20 38° NNE 18:40:20 38° NNE 18:46:03 10° NW
Iridium 4 Rocket 4.2 18:42:33 10° N 18:48:04 55° W 18:53:10 10° SSW
SJ 16-02 3.8 18:50:53 10° WSW 18:54:08 20° WNW 18:55:59 16° NNW
Cosmos 2344 4.3 18:46:50 10° NNW 18:56:21 70° NE 18:59:36 53° ESE
Cosmos 1937 Rocket 4.4 18:53:14 10° SSW 18:56:45 42° SW 18:56:45 42° SW
Lacrosse 5 3.9 19:21:30 10° WNW 19:24:15 25° W 19:24:15 25° W
CZ-2C R/B 4.2 19:27:19 33° WNW 19:27:42 33° WNW 19:32:38 10° SW
NOSS 3-1 (C) 4.3 19:27:29 10° NW 19:34:39 67° W 19:34:39 67° W
USA 267 4.4 19:51:34 38° W 19:51:34 38° W 19:55:41 10° WSW
